Starlink 30249

operational
NORAD ID: 57618 Int'l Des: 2023-119 Owner: SPXS Country: US Constellation: starlink
LEOCIRCULAR

Starlink 30249について

説明を読み込み中...

リアルタイム位置

3D地球を読み込み中...

次回通過

高度履歴

Altitude vs Time

uPlot chart will show altitude changes over time

軌道要素

1 57618U 23119S 26036.00247726 .00000373 00000-0 42694-4 0 9990
2 57618 43.0025 259.6753 0001065 270.9371 89.1350 15.02537020138161
Epoch: Feb 5, 2026 • Age: 9 hours

現在のステータス

高度 570.3 km
速度 7.58 km/s
衛星直下点 -39.65°S, 79.98°W
打ち上げ日 Aug 11, 2023
運用期間 2.4 years
タイプ internet

技術仕様

分類 Payload
質量 730.00 kg
乾燥質量 700.00 kg
総質量 730.00 kg
長さ 0.30 m
直径 4.10 m
スパン 29.00 m
形状 Box + pan
製造者 SPXS
バスタイプ Starlink V2M
フェーズステータス In Orbit
所有者/国 SPXS/US

大規模コンステレーション

Loading constellations...